Weather History for KHEY - May, 2014

Change the Weather History Date:

Monday, May 19, 2014

  Actual Average (KOZR) Record (KOZR)
Temperature  
Mean Temperature 74 °F -  
Max Temperature 86 °F 82 °F 95 °F (1998)
Min Temperature 61 °F 60 °F 46 °F (2002)
Cooling Degree Days 8    
Growing Degree Days 24 (Base 50)    
Moisture  
Dew Point 58 °F    
Average Humidity 63    
Maximum Humidity 93    
Minimum Humidity 33    
Precipitation  
Precipitation 0.00 in - - ()
Sea Level Pressure  
Sea Level Pressure 29.84 in    
Wind  
Wind Speed 4 mph (NE)    
Max Wind Speed 9 mph    
Max Gust Speed -    
Visibility 10 miles    
Events      
Averages and records for this station are not official NWS values.
T = Trace of Precipitation, MM = Missing Value Source: NWS Daily Summary

Daily Weather History Graph

Daily Weather History Graph

Search for Another Location

Airport or City:

Trip Planner

Search our weather history database for the weather conditions in past years. The results will help you decide how hot, cold, wet, or windy it might be!

Date:

Astronomy

May. 19, 2014 Rise Set
Actual Time 5:44 AM CDT 7:34 PM CDT
Civil Twilight 5:17 AM CDT 8:01 PM CDT
Nautical Twilight 4:44 AM CDT 8:33 PM CDT
Astronomical Twilight 4:10 AM CDT 9:08 PM CDT
Moon No Moon Rise 10:35 AM CDT (5/19)
Length of Visible Light 14h 44m
Length of Day
13h 50m
Waning Gibbous, 71% of the Moon is Illuminated
May 19
Waning Gibbous
May 21
Last Quarter
May 28
New
Jun 5
First Quarter
Jun 12
Full

Hourly Weather History & Observations

Time (CDT) Temp. Heat Index Dew Point Humidity Pressure Visibility Wind Dir Wind Speed Gust Speed Precip Events Conditions
12:53 AM 63.0 °F - 57.9 °F 84% 29.83 in 10.0 mi NE 3.5 mph - N/A   Clear
1:53 AM 64.9 °F - 59.0 °F 81% 29.83 in 10.0 mi ENE 5.8 mph - N/A   Clear
2:53 AM 61.0 °F - 59.0 °F 93% 29.83 in 9.0 mi ENE 3.5 mph - N/A   Clear
3:53 AM 63.0 °F - 59.0 °F 87% 29.84 in 10.0 mi NE 4.6 mph - N/A   Clear
4:53 AM 62.1 °F - 59.0 °F 90% 29.84 in 10.0 mi Variable 3.5 mph - N/A   Clear
5:53 AM 62.1 °F - 59.0 °F 90% 29.86 in 10.0 mi NE 5.8 mph - N/A   Clear
6:53 AM 63.0 °F - 59.0 °F 87% 29.87 in 10.0 mi NE 5.8 mph - N/A   Clear
9:53 AM 75.0 °F - 62.1 °F 64% 29.89 in 10.0 mi NE 4.6 mph - N/A   Clear
10:53 AM 79.0 °F - 60.1 °F 52% 29.88 in 10.0 mi NE 4.6 mph - N/A   Clear
11:53 AM 82.0 °F 82.0 °F 57.9 °F 44% 29.87 in 10.0 mi Calm Calm - N/A   Scattered Clouds
1:53 PM 82.0 °F 81.7 °F 57.0 °F 42% 29.85 in 10.0 mi NW 3.5 mph - N/A   Mostly Cloudy
2:53 PM 84.9 °F 83.6 °F 55.0 °F 36% 29.83 in 10.0 mi Variable 5.8 mph - N/A   Partly Cloudy
3:53 PM 86.0 °F 84.2 °F 54.0 °F 33% 29.82 in 10.0 mi North 3.5 mph - N/A   Scattered Clouds
4:53 PM 84.9 °F 83.2 °F 53.1 °F 33% 29.81 in 10.0 mi NE 6.9 mph - N/A   Scattered Clouds
5:53 PM 84.0 °F 82.5 °F 53.1 °F 34% 29.81 in 10.0 mi Calm Calm - N/A   Clear
6:53 PM 80.1 °F 80.9 °F 60.1 °F 50% 29.81 in 10.0 mi Calm Calm - N/A   Clear
7:53 PM 78.1 °F - 59.0 °F 52% 29.82 in 10.0 mi East 4.6 mph - N/A   Clear
8:53 PM 75.0 °F - 60.1 °F 60% 29.83 in 10.0 mi ENE 3.5 mph - N/A   Clear
9:53 PM 70.0 °F - 62.1 °F 76% 29.84 in 10.0 mi East 3.5 mph - N/A   Clear
10:53 PM 70.0 °F - 61.0 °F 73% 29.85 in 10.0 mi South 3.5 mph - N/A   Overcast
11:53 PM 73.0 °F - 60.1 °F 64% 29.85 in 10.0 mi East 9.2 mph - N/A   Mostly Cloudy